Regional Weather Roundup
Issued by NWS

Home | Current Version | Previous Version | Graphics & Text | Print | Product List | Glossary On
Versions: 1 2 3 4 5 6 7 8 9 10 11 12 13 14 15 16 17 18 19 20 21 22 23 24 25 26 27 28 29 30 31 32 33 34 35 36 37 38 39 40 41 42 43 44 45 46 47 48 49 50
000
ASUS43 KFSD 210510
RWRSD

WEATHER ROUNDUP FOR SOUTH DAKOTA
NATIONAL WEATHER SERVICE SIOUX FALLS SD
1200 AM CDT THU SEP 21 2017

NOTE: "FAIR" INDICATES FEW OR NO CLOUDS BELOW 12,000 FEET WITH NO
SIGNIFICANT WEATHER AND/OR OBSTRUCTIONS TO VISIBILITY.


SDZ001>005-009-010-012>017-210600-
NORTHWEST AND NORTH CENTRAL SOUTH DAKOTA

CITY           SKY/WX    TMP DP  RH WIND       PRES   REMARKS
BUFFALO          N/A     57  34  41 SE9       29.67R
FAITH            N/A     59  28  30 SE12      29.75F
MOBRIDGE       CLEAR     52  37  56 SE9       29.76S
$$

SDZ012>016-024>037-041>051-057-063-072>074-210600-
SOUTHWEST AND SOUTH CENTRAL SOUTH DAKOTA

CITY           SKY/WX    TMP DP  RH WIND       PRES   REMARKS
RAPID CTY ARPT NOT AVBL
PIERRE         CLEAR     58  38  47 E9        29.78F
CUSTER         CLOUDY    57  28  33 VRB3      29.87F
ELLSWORTH AFB  CLOUDY    62  35  37 S5        29.76F
PHILIP         CLEAR     58  39  49 S3        29.76F
PINE RIDGE     CLEAR     66  33  29 S16G26    29.80S
SPEARFISH      FAIR      57  34  41 S10       29.78F
WINNER         FAIR      63  42  46 S13       29.84S
$$

SDZ004>011-016>023-039-040-210600-
NORTHEAST SOUTH DAKOTA

CITY           SKY/WX    TMP DP  RH WIND       PRES   REMARKS
ABERDEEN       CLEAR     53  44  71 S10       29.84R
WATERTOWN      CLEAR     53  47  79 S9        29.89S
BROOKINGS      CLEAR     53  46  77 SE10      29.91F
SISSETON         N/A     49  46  90 E5        29.88R
$$

SDZ017-020-022-023-036>040-048>070-210600-
SOUTHEAST SOUTH DAKOTA

CITY           SKY/WX    TMP DP  RH WIND       PRES   REMARKS
SIOUX FALLS    CLEAR     53  51  93 CALM      29.91F
HURON          CLEAR     57  48  72 S9        29.86S
CHAMBERLAIN    CLEAR     56  49  76 SE9       29.85F
MITCHELL       CLEAR     57  49  74 S9        29.88R
YANKTON        CLEAR     55  50  83 E6        29.90F
$$

ABBREVIATIONS USED IN REMARKS
   TC - TEMPERATURE IN CELSIUS
  WCI - WIND CHILL INDEX
   HX - HEAT INDEX
  VSB - VISIBILITY





USA.gov is the U.S. government's official web portal to all federal, state and local government web resources and services.